Location: Chipmunk Meadow
(41.1540°N, 122.8814°W)
Time: 14:20:20
(UTC+00:00)

USA 308 - Pass Details

Date: 13 April 2024
Orbit: 493 x 493 km, 54.0° (Epoch: 14 March)

Event Time Altitude Azimuth Distance (km) Brightness Sun altitude
Exits shadow 12:32:13 12° 206° (SSW) 1,510 4.6 -11.9°
Maximum altitude 12:35:31 46° 134° (SE) 669 3.4 -11.3°
Drops below altitude 10° 12:39:16 10° 61° (ENE) 1,695 6.9 -10.7°
Sets 12:41:31 0° 55° (NE) 2,565 8.1 -10.3°
